Time,TemperatureF,DewpointF,PressureIn,WindDirection,WindDirectionDegrees,WindSpeedMPH,WindSpeedGustMPH,Humidity,HourlyPrecipIn,Conditions,Clouds,dailyrainin,SoftwareType,DateUTC
2013-05-12 00:00:00,73.7,68.6,30.09,NNW,328,5.3,9.2,84,0.00,RA,,0.00,WeatherDisplay:10.37,2013-05-12 05:00:00,
2013-05-12 00:05:00,73.7,68.2,30.08,North,6,5.9,10.2,83,0.00,RA,,0.00,WeatherDisplay:10.37,2013-05-12 05:05:00,
2013-05-12 00:10:00,73.7,67.9,30.08,North,0,6.2,10.4,82,0.00,RA,,0.00,WeatherDisplay:10.37,2013-05-12 05:10:00,
2013-05-12 00:15:00,73.9,67.3,30.10,WNW,296,2.4,10.4,80,0.00,RA,,0.00,WeatherDisplay:10.37,2013-05-12 05:15:00,
2013-05-12 00:20:00,74.0,66.3,30.11,NNW,328,4.1,6.9,77,0.00,RA,,0.00,WeatherDisplay:10.37,2013-05-12 05:20:00,
2013-05-12 00:25:00,74.1,64.9,30.11,NNW,336,7.0,11.9,73,0.00,CLR,,0.00,WeatherDisplay:10.37,2013-05-12 05:25:00,
2013-05-12 00:30:00,74.3,63.9,30.11,NNW,337,7.6,11.5,70,0.00,CLR,,0.00,WeatherDisplay:10.37,2013-05-12 05:30:00,
2013-05-12 00:35:00,74.2,63.8,30.11,NNW,343,6.3,8.9,70,0.00,CLR,,0.00,WeatherDisplay:10.37,2013-05-12 05:35:00,
2013-05-12 00:40:00,73.7,63.3,30.11,NNW,336,8.1,11.5,70,0.00,CLR,,0.00,WeatherDisplay:10.37,2013-05-12 05:40:00,
2013-05-12 00:45:00,73.3,63.3,30.11,NNE,14,9.9,15.0,71,0.01,RA,,0.01,WeatherDisplay:10.37,2013-05-12 05:45:00,
2013-05-12 00:50:00,72.9,62.9,30.09,NE,47,7.3,11.7,71,0.01,RA,,0.01,WeatherDisplay:10.37,2013-05-12 05:50:00,
2013-05-12 00:55:00,72.8,62.8,30.08,ENE,72,9.3,16.1,71,0.01,RA,,0.01,WeatherDisplay:10.37,2013-05-12 05:55:00,
2013-05-12 01:00:00,72.6,62.7,30.08,NNW,333,7.8,13.8,71,0.01,RA,,0.01,WeatherDisplay:10.37,2013-05-12 06:00:00,
2013-05-12 01:05:00,72.8,62.0,30.10,NE,47,8.1,11.4,69,0.01,CLR,,0.01,WeatherDisplay:10.37,2013-05-12 06:05:00,
2013-05-12 01:10:00,72.7,61.1,30.10,North,356,8.8,13.8,67,0.01,CLR,,0.01,WeatherDisplay:10.37,2013-05-12 06:10:00,
2013-05-12 01:15:00,72.6,61.0,30.10,NNW,329,7.8,12.7,67,0.01,CLR,,0.01,WeatherDisplay:10.37,2013-05-12 06:15:00,
2013-05-12 01:20:00,72.4,60.8,30.10,North,352,8.5,11.5,67,0.01,CLR,,0.01,WeatherDisplay:10.37,2013-05-12 06:20:00,
2013-05-12 01:25:00,71.9,60.8,30.09,North,359,9.2,14.1,68,0.01,CLR,,0.01,WeatherDisplay:10.37,2013-05-12 06:25:00,
2013-05-12 01:30:00,71.5,60.8,30.09,NNW,337,9.2,14.1,69,0.01,CLR,,0.01,WeatherDisplay:10.37,2013-05-12 06:30:00,
2013-05-12 01:35:00,70.9,61.0,30.09,North,354,8.4,11.5,71,0.01,CLR,,0.01,WeatherDisplay:10.37,2013-05-12 06:35:00,
2013-05-12 01:40:00,70.5,61.0,30.09,NNE,13,8.6,11.5,72,0.01,CLR,,0.01,WeatherDisplay:10.37,2013-05-12 06:40:00,
2013-05-12 01:45:00,70.4,60.9,30.09,NNE,17,7.7,12.7,72,0.01,RA,,0.02,WeatherDisplay:10.37,2013-05-12 06:45:00,
2013-05-12 01:50:00,70.3,60.8,30.10,NNW,346,8.8,11.5,72,0.01,RA,,0.02,WeatherDisplay:10.37,2013-05-12 06:50:00,
2013-05-12 01:55:00,70.2,60.7,30.10,NNW,342,8.7,12.7,72,0.01,RA,,0.02,WeatherDisplay:10.37,2013-05-12 06:55:00,
2013-05-12 02:00:00,70.1,60.7,30.10,NNW,328,7.8,11.5,72,0.01,RA,,0.02,WeatherDisplay:10.37,2013-05-12 07:00:00,
2013-05-12 02:05:00,69.9,60.5,30.09,North,354,7.8,12.9,72,0.01,CLR,,0.02,WeatherDisplay:10.37,2013-05-12 07:05:00,
2013-05-12 02:10:00,69.8,60.4,30.09,NNW,336,8.7,12.7,72,0.01,CLR,,0.02,WeatherDisplay:10.37,2013-05-12 07:10:00,
2013-05-12 02:15:00,69.7,60.3,30.08,North,357,9.4,15.0,72,0.01,CLR,,0.02,WeatherDisplay:10.37,2013-05-12 07:15:00,
2013-05-12 02:20:00,69.8,60.0,30.08,NW,315,8.6,11.5,71,0.01,CLR,,0.02,WeatherDisplay:10.37,2013-05-12 07:20:00,
2013-05-12 02:25:00,69.7,59.5,30.08,North,349,9.7,15.0,70,0.01,CLR,,0.02,WeatherDisplay:10.37,2013-05-12 07:25:00,
2013-05-12 02:30:00,69.5,59.3,30.08,NNW,330,8.2,11.5,70,0.01,CLR,,0.02,WeatherDisplay:10.37,2013-05-12 07:30:00,
2013-05-12 02:35:00,69.6,59.4,30.08,NNW,342,6.9,11.5,70,0.01,CLR,,0.02,WeatherDisplay:10.37,2013-05-12 07:35:00,
2013-05-12 02:40:00,69.6,59.4,30.08,NNE,21,8.4,11.5,70,0.01,CLR,,0.02,WeatherDisplay:10.37,2013-05-12 07:40:00,
2013-05-12 02:45:00,69.6,59.4,30.08,NW,315,8.6,12.7,70,0.00,CLR,,0.02,WeatherDisplay:10.37,2013-05-12 07:45:00,
2013-05-12 02:50:00,69.5,59.7,30.08,NNW,339,7.1,10.4,71,0.00,CLR,,0.02,WeatherDisplay:10.37,2013-05-12 07:50:00,
2013-05-12 02:55:00,69.4,60.0,30.07,North,8,7.4,10.4,72,0.00,CLR,,0.02,WeatherDisplay:10.37,2013-05-12 07:55:00,
2013-05-12 03:00:00,69.4,60.4,30.07,NNE,24,7.3,10.4,73,0.00,CLR,,0.02,WeatherDisplay:10.37,2013-05-12 08:00:00,
2013-05-12 03:05:00,69.3,60.3,30.07,North,356,5.0,10.7,73,0.00,CLR,,0.02,WeatherDisplay:10.37,2013-05-12 08:05:00,
2013-05-12 03:10:00,69.3,60.7,30.07,NW,322,6.9,9.2,74,0.00,CLR,,0.02,WeatherDisplay:10.37,2013-05-12 08:10:00,
2013-05-12 03:15:00,69.3,60.3,30.07,North,11,6.0,10.4,73,0.00,CLR,,0.02,WeatherDisplay:10.37,2013-05-12 08:15:00,
2013-05-12 03:20:00,69.3,59.9,30.07,North,360,6.6,9.8,72,0.00,CLR,,0.02,WeatherDisplay:10.37,2013-05-12 08:20:00,
2013-05-12 03:25:00,69.4,60.0,30.06,NNE,30,4.8,10.4,72,0.00,CLR,,0.02,WeatherDisplay:10.37,2013-05-12 08:25:00,
2013-05-12 03:30:00,69.5,59.3,30.06,NNE,16,6.3,9.2,70,0.00,CLR,,0.02,WeatherDisplay:10.37,2013-05-12 08:30:00,
2013-05-12 03:35:00,69.8,59.2,30.06,NNE,14,4.1,11.5,69,0.00,CLR,,0.02,WeatherDisplay:10.37,2013-05-12 08:35:00,
2013-05-12 03:40:00,70.0,59.8,30.06,NNE,18,4.7,8.1,70,0.00,CLR,,0.02,WeatherDisplay:10.37,2013-05-12 08:40:00,
2013-05-12 03:45:00,70.0,59.8,30.06,NNE,32,6.2,8.1,70,0.00,CLR,,0.02,WeatherDisplay:10.37,2013-05-12 08:45:00,
2013-05-12 03:50:00,69.9,59.3,30.05,ENE,59,4.8,8.1,69,0.00,CLR,,0.02,WeatherDisplay:10.37,2013-05-12 08:50:00,
2013-05-12 03:55:00,69.9,59.7,30.05,North,4,4.3,9.2,70,0.00,CLR,,0.02,WeatherDisplay:10.37,2013-05-12 08:55:00,
2013-05-12 04:00:00,70.0,60.2,30.05,North,8,4.5,5.8,71,0.00,CLR,,0.02,WeatherDisplay:10.37,2013-05-12 09:00:00,
2013-05-12 04:06:00,70.1,60.7,30.05,NNW,347,5.9,8.1,72,0.00,CLR,,0.02,WeatherDisplay:10.37,2013-05-12 09:06:00,
2013-05-12 04:11:00,69.8,60.4,30.05,ENE,62,4.4,6.9,72,0.00,CLR,,0.02,WeatherDisplay:10.37,2013-05-12 09:11:00,
2013-05-12 04:16:00,70.0,60.9,30.05,NNE,16,6.6,17.3,73,0.00,CLR,,0.02,WeatherDisplay:10.37,2013-05-12 09:16:00,
2013-05-12 04:21:00,70.4,60.9,30.04,ENE,65,9.0,16.1,72,0.00,CLR,,0.02,WeatherDisplay:10.37,2013-05-12 09:21:00,
2013-05-12 04:26:00,70.9,60.2,30.05,ENE,64,9.1,17.3,69,0.00,CLR,,0.02,WeatherDisplay:10.37,2013-05-12 09:26:00,
2013-05-12 04:31:00,71.5,60.8,30.05,North,353,6.9,11.3,69,0.00,CLR,,0.02,WeatherDisplay:10.37,2013-05-12 09:31:00,
2013-05-12 04:36:00,71.5,60.4,30.05,NNW,339,5.9,11.6,68,0.00,CLR,,0.02,WeatherDisplay:10.37,2013-05-12 09:36:00,
2013-05-12 04:41:00,71.1,60.0,30.05,NNW,335,6.1,8.1,68,0.00,CLR,,0.02,WeatherDisplay:10.37,2013-05-12 09:41:00,
2013-05-12 04:46:00,70.5,59.4,30.06,NNW,328,3.9,6.9,68,0.00,CLR,,0.02,WeatherDisplay:10.37,2013-05-12 09:46:00,
2013-05-12 04:51:00,70.1,59.5,30.06,NW,305,3.8,5.8,69,0.00,CLR,,0.02,WeatherDisplay:10.37,2013-05-12 09:51:00,
2013-05-12 04:56:00,69.5,59.3,30.06,WNW,302,4.3,5.8,70,0.00,CLR,,0.02,WeatherDisplay:10.37,2013-05-12 09:56:00,
2013-05-12 05:01:00,69.3,59.1,30.07,NNW,335,4.3,6.9,70,0.00,CLR,,0.02,WeatherDisplay:10.37,2013-05-12 10:01:00,
2013-05-12 05:06:00,69.2,59.0,30.07,NNW,347,5.7,8.1,70,0.00,CLR,,0.02,WeatherDisplay:10.37,2013-05-12 10:06:00,
2013-05-12 05:11:00,69.3,59.1,30.06,North,350,4.1,5.8,70,0.00,CLR,,0.02,WeatherDisplay:10.37,2013-05-12 10:11:00,
2013-05-12 05:16:00,69.3,59.1,30.06,North,353,3.3,5.8,70,0.00,CLR,,0.02,WeatherDisplay:10.37,2013-05-12 10:16:00,
2013-05-12 05:21:00,69.5,59.3,30.06,North,353,3.7,4.7,70,0.00,CLR,,0.02,WeatherDisplay:10.37,2013-05-12 10:21:00,
2013-05-12 05:26:00,69.4,59.6,30.05,NNW,336,2.0,4.7,71,0.00,CLR,,0.02,WeatherDisplay:10.37,2013-05-12 10:26:00,
2013-05-12 05:31:00,69.2,59.4,30.06,NNW,340,4.1,5.8,71,0.00,CLR,,0.02,WeatherDisplay:10.37,2013-05-12 10:31:00,
2013-05-12 05:36:00,69.1,59.3,30.06,North,350,5.0,6.9,71,0.00,CLR,,0.02,WeatherDisplay:10.37,2013-05-12 10:36:00,
2013-05-12 05:41:00,69.2,59.8,30.06,NNW,347,4.6,8.1,72,0.00,CLR,,0.02,WeatherDisplay:10.37,2013-05-12 10:41:00,
2013-05-12 05:46:00,69.2,59.8,30.06,North,353,6.4,9.2,72,0.00,CLR,,0.02,WeatherDisplay:10.37,2013-05-12 10:46:00,
2013-05-12 05:51:00,69.3,60.3,30.06,NNW,339,7.0,9.2,73,0.00,CLR,,0.02,WeatherDisplay:10.37,2013-05-12 10:51:00,
2013-05-12 05:56:00,69.0,60.0,30.06,NNW,346,8.1,11.0,73,0.00,CLR,,0.02,WeatherDisplay:10.37,2013-05-12 10:56:00,
2013-05-12 06:01:00,68.7,59.7,30.07,North,7,7.6,12.7,73,0.00,CLR,,0.02,WeatherDisplay:10.37,2013-05-12 11:01:00,
2013-05-12 06:06:00,68.5,59.9,30.07,NNW,346,8.5,13.8,74,0.00,CLR,,0.02,WeatherDisplay:10.37,2013-05-12 11:06:00,
2013-05-12 06:11:00,68.6,60.0,30.07,North,360,8.9,12.7,74,0.00,CLR,,0.02,WeatherDisplay:10.37,2013-05-12 11:11:00,
2013-05-12 06:16:00,68.5,60.3,30.08,NNW,343,8.0,12.7,75,0.00,CLR,,0.02,WeatherDisplay:10.37,2013-05-12 11:16:00,
2013-05-12 06:21:00,68.5,60.3,30.08,NNW,346,8.6,12.7,75,0.00,CLR,,0.02,WeatherDisplay:10.37,2013-05-12 11:21:00,
2013-05-12 06:26:00,68.4,59.8,30.08,NNW,337,7.0,11.5,74,0.00,CLR,,0.02,WeatherDisplay:10.37,2013-05-12 11:26:00,
2013-05-12 06:31:00,68.5,59.5,30.09,North,3,8.4,12.7,73,0.00,CLR,,0.02,WeatherDisplay:10.37,2013-05-12 11:31:00,
2013-05-12 06:36:00,68.5,59.1,30.09,North,350,6.9,9.4,72,0.00,CLR,,0.02,WeatherDisplay:10.37,2013-05-12 11:36:00,
2013-05-12 06:41:00,68.6,59.2,30.09,North,352,8.3,10.8,72,0.00,CLR,,0.02,WeatherDisplay:10.37,2013-05-12 11:41:00,
2013-05-12 06:47:00,68.7,59.3,30.10,North,350,5.6,8.1,72,0.00,CLR,,0.02,WeatherDisplay:10.37,2013-05-12 11:47:00,
2013-05-12 06:52:00,68.7,59.3,30.10,North,0,6.0,8.1,72,0.00,CLR,,0.02,WeatherDisplay:10.37,2013-05-12 11:52:00,
2013-05-12 06:57:00,68.8,59.4,30.10,North,3,7.4,9.2,72,0.00,CLR,,0.02,WeatherDisplay:10.37,2013-05-12 11:57:00,
2013-05-12 07:02:00,68.9,59.9,30.10,North,357,6.1,9.2,73,0.00,CLR,,0.02,WeatherDisplay:10.37,2013-05-12 12:02:00,
2013-05-12 07:07:00,69.0,60.0,30.10,NNW,339,6.4,10.4,73,0.00,CLR,,0.02,WeatherDisplay:10.37,2013-05-12 12:07:00,
2013-05-12 07:12:00,69.1,60.1,30.10,North,6,7.4,10.4,73,0.00,CLR,,0.02,WeatherDisplay:10.37,2013-05-12 12:12:00,
2013-05-12 07:17:00,69.2,60.2,30.10,NNW,335,6.4,8.1,73,0.00,CLR,,0.02,WeatherDisplay:10.37,2013-05-12 12:17:00,
2013-05-12 07:22:00,69.3,60.3,30.11,NNE,32,7.6,10.1,73,0.00,CLR,,0.02,WeatherDisplay:10.37,2013-05-12 12:22:00,
2013-05-12 07:27:00,69.4,60.4,30.11,North,4,5.3,9.2,73,0.00,CLR,,0.02,WeatherDisplay:10.37,2013-05-12 12:27:00,
2013-05-12 07:32:00,69.4,60.4,30.11,North,3,6.1,9.2,73,0.00,CLR,,0.02,WeatherDisplay:10.37,2013-05-12 12:32:00,
2013-05-12 07:37:00,69.6,60.6,30.11,NNE,30,4.0,9.6,73,0.00,CLR,,0.02,WeatherDisplay:10.37,2013-05-12 12:37:00,
2013-05-12 07:42:00,69.8,60.8,30.11,North,4,4.9,9.2,73,0.00,CLR,,0.02,WeatherDisplay:10.37,2013-05-12 12:42:00,
2013-05-12 07:47:00,70.1,61.4,30.10,ENE,78,6.0,10.4,74,0.00,CLR,,0.02,WeatherDisplay:10.37,2013-05-12 12:47:00,
2013-05-12 07:52:00,70.6,62.7,30.10,NE,38,8.3,11.5,76,0.00,CLR,,0.02,WeatherDisplay:10.37,2013-05-12 12:52:00,
2013-05-12 07:57:00,71.2,64.0,30.11,ENE,58,12.1,15.0,78,0.00,CLR,,0.02,WeatherDisplay:10.37,2013-05-12 12:57:00,
2013-05-12 08:02:00,71.7,64.5,30.11,NE,56,12.5,16.9,78,0.00,CLR,,0.02,WeatherDisplay:10.37,2013-05-12 13:02:00,
2013-05-12 08:07:00,72.1,65.2,30.11,NE,41,9.2,15.0,79,0.00,CLR,,0.02,WeatherDisplay:10.37,2013-05-12 13:07:00,
2013-05-12 08:13:00,72.5,66.0,30.10,NE,52,13.0,16.1,80,0.00,CLR,,0.02,WeatherDisplay:10.37,2013-05-12 13:13:00,
2013-05-12 08:18:00,72.9,66.4,30.11,ENE,61,12.0,16.1,80,0.00,CLR,,0.02,WeatherDisplay:10.37,2013-05-12 13:18:00,
2013-05-12 08:23:00,73.1,66.6,30.11,NE,49,15.7,19.6,80,0.00,CLR,,0.02,WeatherDisplay:10.37,2013-05-12 13:23:00,
2013-05-12 08:28:00,73.3,66.8,30.11,NE,48,15.2,19.6,80,0.00,,,0.02,WeatherDisplay:10.37,2013-05-12 13:28:00,
2013-05-12 08:33:00,73.5,66.6,30.11,NE,47,13.1,19.8,79,0.00,,,0.02,WeatherDisplay:10.37,2013-05-12 13:33:00,
2013-05-12 08:38:00,73.7,67.1,30.11,ENE,73,12.0,18.4,80,0.00,,,0.02,WeatherDisplay:10.37,2013-05-12 13:38:00,
2013-05-12 08:43:00,73.8,67.2,30.11,NE,47,10.0,16.4,80,0.00,CLR,,0.02,WeatherDisplay:10.37,2013-05-12 13:43:00,
2013-05-12 08:48:00,73.8,67.2,30.11,NE,52,12.4,18.4,80,0.00,CLR,,0.02,WeatherDisplay:10.37,2013-05-12 13:48:00,
2013-05-12 08:57:00,73.9,67.3,30.11,NE,35,12.3,18.8,80,0.00,CLR,,0.03,WeatherDisplay:10.37,2013-05-12 13:57:00,
2013-05-12 09:02:00,73.9,67.3,30.11,NNE,31,9.7,16.2,80,0.00,CLR,,0.03,WeatherDisplay:10.37,2013-05-12 14:02:00,
2013-05-12 09:07:00,73.9,67.3,30.12,NE,40,11.0,17.3,80,0.00,CLR,,0.03,WeatherDisplay:10.37,2013-05-12 14:07:00,
2013-05-12 09:12:00,73.9,67.7,30.12,ENE,59,13.9,18.8,81,0.00,CLR,,0.03,WeatherDisplay:10.37,2013-05-12 14:12:00,
2013-05-12 09:17:00,73.9,67.7,30.12,North,8,11.1,16.1,81,0.00,CLR,,0.03,WeatherDisplay:10.37,2013-05-12 14:17:00,
2013-05-12 09:22:00,74.0,67.8,30.12,North,360,7.8,13.8,81,0.00,CLR,,0.03,WeatherDisplay:10.37,2013-05-12 14:22:00,
2013-05-12 09:27:00,73.8,67.6,30.13,NNE,23,7.4,15.0,81,0.00,CLR,,0.03,WeatherDisplay:10.37,2013-05-12 14:27:00,
2013-05-12 09:32:00,73.5,67.3,30.14,North,3,8.9,12.7,81,0.00,CLR,,0.03,WeatherDisplay:10.37,2013-05-12 14:32:00,
2013-05-12 09:37:00,73.4,67.2,30.14,NNE,23,5.8,15.5,81,0.00,CLR,,0.03,WeatherDisplay:10.37,2013-05-12 14:37:00,
2013-05-12 09:42:00,73.4,67.2,30.14,NNE,13,7.5,16.1,81,0.00,CLR,,0.03,WeatherDisplay:10.37,2013-05-12 14:42:00,
2013-05-12 09:47:00,73.5,67.7,30.14,NNE,28,6.2,15.5,82,0.00,CLR,,0.03,WeatherDisplay:10.37,2013-05-12 14:47:00,
2013-05-12 09:52:00,73.5,67.7,30.14,NNE,28,8.3,14.2,82,0.00,CLR,,0.03,WeatherDisplay:10.37,2013-05-12 14:52:00,
2013-05-12 09:57:00,73.5,67.7,30.15,NNW,347,8.8,12.7,82,0.00,CLR,,0.03,WeatherDisplay:10.37,2013-05-12 14:57:00,
2013-05-12 10:02:00,72.8,65.9,30.15,NW,322,8.5,12.7,79,0.00,CLR,,0.03,WeatherDisplay:10.37,2013-05-12 15:02:00,
2013-05-12 10:07:00,72.4,65.9,30.15,NW,320,8.4,16.1,80,0.00,CLR,,0.03,WeatherDisplay:10.37,2013-05-12 15:07:00,
2013-05-12 10:14:00,72.0,65.5,30.15,North,1,8.0,10.4,80,0.00,CLR,,0.03,WeatherDisplay:10.37,2013-05-12 15:14:00,
2013-05-12 10:19:00,72.0,65.8,30.15,North,353,8.5,11.3,81,0.00,CLR,,0.03,WeatherDisplay:10.37,2013-05-12 15:19:00,
2013-05-12 10:24:00,71.8,65.7,30.14,North,8,6.4,10.4,81,0.00,CLR,,0.03,WeatherDisplay:10.37,2013-05-12 15:24:00,
2013-05-12 10:29:00,71.8,66.0,30.14,North,353,7.2,10.9,82,0.00,CLR,,0.03,WeatherDisplay:10.37,2013-05-12 15:29:00,
2013-05-12 10:34:00,71.8,66.0,30.15,NNW,346,7.7,11.5,82,0.00,CLR,,0.03,WeatherDisplay:10.37,2013-05-12 15:34:00,
2013-05-12 10:39:00,71.7,66.3,30.15,NW,305,5.6,11.5,83,0.00,CLR,,0.03,WeatherDisplay:10.37,2013-05-12 15:39:00,
2013-05-12 10:44:00,71.6,66.5,30.15,NNW,346,6.3,11.5,84,0.01,RA,,0.04,WeatherDisplay:10.37,2013-05-12 15:44:00,
2013-05-12 10:49:00,71.6,66.5,30.15,North,6,8.8,13.1,84,0.01,RA,,0.04,WeatherDisplay:10.37,2013-05-12 15:49:00,
2013-05-12 10:54:00,71.5,66.8,30.15,NW,323,6.4,11.9,85,0.01,RA,,0.04,WeatherDisplay:10.37,2013-05-12 15:54:00,
2013-05-12 10:59:00,71.4,67.0,30.16,North,353,6.2,12.7,86,0.01,RA,,0.04,WeatherDisplay:10.37,2013-05-12 15:59:00,
2013-05-12 11:04:00,71.2,67.5,30.16,NNW,347,5.4,8.1,88,0.01,,,0.04,WeatherDisplay:10.37,2013-05-12 16:04:00,
2013-05-12 11:09:00,71.1,67.7,30.16,NNW,344,7.2,9.7,89,0.01,CLR,,0.04,WeatherDisplay:10.37,2013-05-12 16:09:00,
2013-05-12 11:14:00,71.1,68.0,30.16,NNW,330,7.5,9.8,90,0.01,CLR,,0.04,WeatherDisplay:10.37,2013-05-12 16:14:00,
2013-05-12 11:19:00,70.9,68.1,30.16,WNW,296,6.9,9.2,91,0.01,CLR,,0.04,WeatherDisplay:10.37,2013-05-12 16:19:00,
2013-05-12 11:24:00,70.6,68.2,30.16,NNW,330,5.5,8.6,92,0.01,CLR,,0.04,WeatherDisplay:10.37,2013-05-12 16:24:00,
2013-05-12 11:29:00,70.3,67.9,30.17,NW,304,6.4,8.1,92,0.01,CLR,,0.04,WeatherDisplay:10.37,2013-05-12 16:29:00,
2013-05-12 11:34:00,69.7,67.6,30.17,NW,318,6.7,10.4,93,0.01,CLR,,0.04,WeatherDisplay:10.37,2013-05-12 16:34:00,
2013-05-12 11:39:00,69.5,67.7,30.17,NW,312,6.0,9.2,94,0.01,CLR,,0.04,WeatherDisplay:10.37,2013-05-12 16:39:00,
2013-05-12 11:44:00,69.1,67.3,30.17,WNW,291,6.1,9.2,94,0.01,RA,,0.05,WeatherDisplay:10.37,2013-05-12 16:44:00,
2013-05-12 11:49:00,68.7,67.2,30.17,NW,318,4.4,8.1,95,0.01,RA,,0.05,WeatherDisplay:10.37,2013-05-12 16:49:00,
2013-05-12 11:54:00,68.4,67.2,30.17,NW,312,6.8,9.5,96,0.02,RA,,0.06,WeatherDisplay:10.37,2013-05-12 16:54:00,
2013-05-12 11:59:00,68.4,67.2,30.16,North,359,6.6,9.1,96,0.03,RA,,0.07,WeatherDisplay:10.37,2013-05-12 16:59:00,
2013-05-12 12:04:00,68.5,67.3,30.17,NW,323,4.1,9.2,96,0.04,RA,,0.09,WeatherDisplay:10.37,2013-05-12 17:04:00,
2013-05-12 12:09:00,68.4,67.2,30.17,NW,312,5.3,6.9,96,0.08,RA,,0.12,WeatherDisplay:10.37,2013-05-12 17:09:00,
2013-05-12 12:14:00,68.4,67.2,30.17,NW,313,4.6,8.1,96,0.09,RA,,0.13,WeatherDisplay:10.37,2013-05-12 17:14:00,
2013-05-12 12:19:00,68.6,67.7,30.17,North,350,1.4,4.8,97,0.10,RA,,0.14,WeatherDisplay:10.37,2013-05-12 17:19:00,
2013-05-12 12:24:00,68.8,67.9,30.17,North,352,4.0,5.1,97,0.11,RA,,0.15,WeatherDisplay:10.37,2013-05-12 17:24:00,
2013-05-12 12:29:00,69.0,68.1,30.16,North,11,0.0,3.5,97,0.11,RA,,0.15,WeatherDisplay:10.37,2013-05-12 17:29:00,
2013-05-12 12:34:00,69.5,68.6,30.16,NE,55,3.9,5.8,97,0.11,RA,,0.15,WeatherDisplay:10.37,2013-05-12 17:34:00,
2013-05-12 12:39:00,69.7,68.8,30.15,ENE,58,5.2,5.8,97,0.11,RA,,0.15,WeatherDisplay:10.37,2013-05-12 17:39:00,
2013-05-12 12:44:00,70.3,69.7,30.15,East,82,3.0,5.8,98,0.10,CLR,,0.15,WeatherDisplay:10.37,2013-05-12 17:44:00,
2013-05-12 12:49:00,70.8,70.2,30.15,East,85,4.8,8.3,98,0.10,CLR,,0.15,WeatherDisplay:10.37,2013-05-12 17:49:00,
2013-05-12 12:54:00,71.2,70.6,30.15,ENE,65,4.6,8.1,98,0.09,CLR,,0.15,WeatherDisplay:10.37,2013-05-12 17:54:00,
2013-05-12 12:59:00,71.5,70.9,30.14,ENE,62,7.9,11.4,98,0.08,CLR,,0.15,WeatherDisplay:10.37,2013-05-12 17:59:00,
2013-05-12 13:04:00,71.9,71.3,30.14,ENE,66,9.3,11.5,98,0.07,CLR,,0.15,WeatherDisplay:10.37,2013-05-12 18:04:00,
2013-05-12 13:09:00,72.1,71.5,30.14,East,82,8.1,10.4,98,0.03,CLR,,0.15,WeatherDisplay:10.37,2013-05-12 18:09:00,
2013-05-12 13:14:00,72.3,71.4,30.14,ENE,69,7.9,11.5,97,0.02,CLR,,0.15,WeatherDisplay:10.37,2013-05-12 18:14:00,
2013-05-12 13:19:00,72.2,71.3,30.14,ENE,72,9.8,13.8,97,0.01,CLR,,0.15,WeatherDisplay:10.37,2013-05-12 18:19:00,
2013-05-12 13:25:00,72.2,71.3,30.14,ENE,71,8.0,13.9,97,0.00,CLR,,0.16,WeatherDisplay:10.37,2013-05-12 18:25:00,
2013-05-12 13:30:00,72.3,71.4,30.14,ENE,69,9.7,11.5,97,0.01,RA,,0.16,WeatherDisplay:10.37,2013-05-12 18:30:00,
2013-05-12 13:35:00,72.4,71.5,30.14,East,82,11.8,15.0,97,0.01,RA,,0.16,WeatherDisplay:10.37,2013-05-12 18:35:00,
2013-05-12 13:40:00,72.5,71.6,30.14,East,79,11.5,17.3,97,0.02,RA,,0.17,WeatherDisplay:10.37,2013-05-12 18:40:00,
2013-05-12 13:45:00,72.6,71.7,30.13,East,83,12.4,16.1,97,0.03,RA,,0.18,WeatherDisplay:10.37,2013-05-12 18:45:00,
2013-05-12 13:50:00,72.7,71.8,30.11,East,80,15.1,22.2,97,0.03,RA,,0.18,WeatherDisplay:10.37,2013-05-12 18:50:00,
2013-05-12 13:55:00,72.8,71.9,30.11,East,93,15.4,20.7,97,0.03,RA,,0.18,WeatherDisplay:10.37,2013-05-12 18:55:00,
2013-05-12 14:00:00,73.0,72.4,30.10,East,89,13.7,21.9,98,0.03,RA,,0.18,WeatherDisplay:10.37,2013-05-12 19:00:00,
2013-05-12 14:05:00,73.1,72.5,30.11,East,79,12.4,20.7,98,0.04,RA,,0.19,WeatherDisplay:10.37,2013-05-12 19:05:00,
2013-05-12 14:10:00,73.6,73.0,30.12,East,83,12.2,20.7,98,0.04,RA,,0.19,WeatherDisplay:10.37,2013-05-12 19:10:00,
2013-05-12 14:15:00,74.5,73.9,30.12,East,90,11.1,18.4,98,0.04,RA,,0.19,WeatherDisplay:10.37,2013-05-12 19:15:00,
2013-05-12 14:20:00,75.2,74.6,30.12,East,100,10.4,15.0,98,0.04,RA,,0.19,WeatherDisplay:10.37,2013-05-12 19:20:00,
2013-05-12 14:25:00,75.0,74.1,30.12,East,85,10.4,17.3,97,0.03,CLR,,0.19,WeatherDisplay:10.37,2013-05-12 19:25:00,
2013-05-12 14:30:00,74.7,73.8,30.12,ENE,73,10.3,16.1,97,0.03,CLR,,0.19,WeatherDisplay:10.37,2013-05-12 19:30:00,
2013-05-12 14:35:00,74.7,73.8,30.12,East,89,13.1,15.0,97,0.03,CLR,,0.19,WeatherDisplay:10.37,2013-05-12 19:35:00,
2013-05-12 14:40:00,75.0,73.8,30.11,NE,51,10.7,14.4,96,0.04,RA,,0.21,WeatherDisplay:10.37,2013-05-12 19:40:00,
2013-05-12 14:45:00,75.7,74.5,30.11,ESE,102,12.0,17.3,96,0.03,RA,,0.21,WeatherDisplay:10.37,2013-05-12 19:45:00,
2013-05-12 14:50:00,76.3,74.1,30.11,ENE,73,10.5,18.4,93,0.03,RA,,0.21,WeatherDisplay:10.37,2013-05-12 19:50:00,
2013-05-12 14:55:00,76.9,73.4,30.12,NE,44,12.3,18.4,89,0.03,RA,,0.21,WeatherDisplay:10.37,2013-05-12 19:55:00,
2013-05-12 15:00:00,77.4,72.2,30.11,ENE,68,12.0,15.7,84,0.03,CLR,,0.21,WeatherDisplay:10.37,2013-05-12 20:00:00,
2013-05-12 15:05:00,77.8,70.8,30.11,ENE,65,11.2,16.1,79,0.02,CLR,,0.21,WeatherDisplay:10.37,2013-05-12 20:05:00,
2013-05-12 15:10:00,77.7,69.5,30.12,East,79,10.1,17.3,76,0.02,CLR,,0.21,WeatherDisplay:10.37,2013-05-12 20:10:00,
2013-05-12 15:15:00,77.7,69.1,30.12,East,93,11.2,15.0,75,0.02,CLR,,0.21,WeatherDisplay:10.37,2013-05-12 20:15:00,
2013-05-12 15:20:00,77.9,68.5,30.13,ENE,78,9.1,13.8,73,0.02,CLR,,0.21,WeatherDisplay:10.37,2013-05-12 20:20:00,
2013-05-12 15:25:00,78.0,68.2,30.12,East,79,11.2,15.8,72,0.02,CLR,,0.21,WeatherDisplay:10.37,2013-05-12 20:25:00,
2013-05-12 15:31:00,78.0,68.2,30.12,East,79,8.2,13.8,72,0.02,CLR,,0.21,WeatherDisplay:10.37,2013-05-12 20:31:00,
2013-05-12 15:36:00,78.1,68.3,30.12,ENE,69,8.3,9.8,72,0.02,CLR,,0.21,WeatherDisplay:10.37,2013-05-12 20:36:00,
2013-05-12 15:41:00,78.2,68.0,30.12,ENE,75,11.1,13.8,71,0.00,CLR,,0.21,WeatherDisplay:10.37,2013-05-12 20:41:00,
2013-05-12 15:46:00,78.3,68.1,30.11,ENE,78,10.8,13.8,71,0.00,CLR,,0.21,WeatherDisplay:10.37,2013-05-12 20:46:00,
2013-05-12 15:51:00,78.3,68.5,30.11,ENE,76,9.2,13.8,72,0.00,CLR,,0.21,WeatherDisplay:10.37,2013-05-12 20:51:00,
2013-05-12 15:56:00,78.3,68.1,30.11,ENE,78,10.2,16.1,71,0.00,CLR,,0.21,WeatherDisplay:10.37,2013-05-12 20:56:00,
2013-05-12 16:01:00,78.1,67.9,30.11,East,93,9.9,14.2,71,0.00,CLR,,0.21,WeatherDisplay:10.37,2013-05-12 21:01:00,
2013-05-12 16:06:00,78.1,67.9,30.11,ENE,78,10.5,17.7,71,0.00,CLR,,0.21,WeatherDisplay:10.37,2013-05-12 21:06:00,
2013-05-12 16:11:00,77.7,67.5,30.11,East,88,9.9,15.0,71,0.00,CLR,,0.21,WeatherDisplay:10.37,2013-05-12 21:11:00,
2013-05-12 16:16:00,77.4,67.3,30.11,East,86,11.0,16.1,71,0.00,CLR,,0.21,WeatherDisplay:10.37,2013-05-12 21:16:00,
2013-05-12 16:21:00,77.4,67.3,30.11,ESE,103,8.5,11.5,71,0.00,CLR,,0.21,WeatherDisplay:10.37,2013-05-12 21:21:00,
2013-05-12 16:26:00,77.4,67.3,30.11,East,99,10.4,16.1,71,0.00,CLR,,0.21,WeatherDisplay:10.37,2013-05-12 21:26:00,
2013-05-12 16:31:00,77.2,66.7,30.11,ENE,71,12.6,18.4,70,0.00,CLR,,0.21,WeatherDisplay:10.37,2013-05-12 21:31:00,
2013-05-12 16:36:00,77.4,66.8,30.11,East,85,9.3,13.8,70,0.00,CLR,,0.21,WeatherDisplay:10.37,2013-05-12 21:36:00,
2013-05-12 16:41:00,77.7,67.1,30.11,East,86,9.9,17.3,70,0.00,CLR,,0.21,WeatherDisplay:10.37,2013-05-12 21:41:00,
2013-05-12 16:46:00,77.8,66.8,30.11,ENE,76,12.1,17.3,69,0.00,CLR,,0.21,WeatherDisplay:10.37,2013-05-12 21:46:00,
2013-05-12 16:51:00,77.3,65.5,30.11,East,79,13.4,17.3,67,0.00,CLR,,0.21,WeatherDisplay:10.37,2013-05-12 21:51:00,
2013-05-12 16:56:00,76.9,65.5,30.11,ENE,64,9.1,13.8,68,0.00,CLR,,0.21,WeatherDisplay:10.37,2013-05-12 21:56:00,
2013-05-12 17:01:00,76.8,66.3,30.11,East,80,10.8,14.6,70,0.00,CLR,,0.21,WeatherDisplay:10.37,2013-05-12 22:01:00,
2013-05-12 17:07:00,76.5,66.0,30.11,ENE,71,10.4,15.0,70,0.00,CLR,,0.21,WeatherDisplay:10.37,2013-05-12 22:07:00,
2013-05-12 17:12:00,76.2,65.7,30.12,ENE,65,9.0,13.8,70,0.00,CLR,,0.21,WeatherDisplay:10.37,2013-05-12 22:12:00,
2013-05-12 17:17:00,75.9,65.8,30.11,ENE,61,11.2,19.6,71,0.00,CLR,,0.21,WeatherDisplay:10.37,2013-05-12 22:17:00,
2013-05-12 17:22:00,75.7,66.0,30.11,East,97,8.0,13.8,72,0.00,CLR,,0.21,WeatherDisplay:10.37,2013-05-12 22:22:00,
2013-05-12 17:27:00,75.4,66.1,30.11,ENE,65,10.5,15.0,73,0.00,CLR,,0.21,WeatherDisplay:10.37,2013-05-12 22:27:00,
2013-05-12 17:32:00,75.3,66.4,30.11,East,88,8.8,13.8,74,0.00,CLR,,0.21,WeatherDisplay:10.37,2013-05-12 22:32:00,
2013-05-12 17:38:00,75.1,66.6,30.11,NE,56,12.6,16.1,75,0.00,CLR,,0.21,WeatherDisplay:10.37,2013-05-12 22:38:00,
2013-05-12 17:43:00,75.0,66.5,30.11,ESE,106,12.2,17.3,75,0.00,CLR,,0.21,WeatherDisplay:10.37,2013-05-12 22:43:00,
2013-05-12 17:48:00,75.0,66.9,30.11,NE,52,8.3,11.5,76,0.00,CLR,,0.21,WeatherDisplay:10.37,2013-05-12 22:48:00,
2013-05-12 17:53:00,75.0,66.9,30.11,East,86,10.5,16.1,76,0.00,CLR,,0.21,WeatherDisplay:10.37,2013-05-12 22:53:00,
2013-05-12 17:58:00,75.2,67.1,30.11,ENE,65,8.3,13.8,76,0.00,CLR,,0.21,WeatherDisplay:10.37,2013-05-12 22:58:00,
2013-05-12 18:03:00,75.2,67.1,30.11,East,79,8.9,16.1,76,0.00,CLR,,0.21,WeatherDisplay:10.37,2013-05-12 23:03:00,
2013-05-12 18:08:00,75.1,66.6,30.11,East,88,8.9,13.8,75,0.00,CLR,,0.21,WeatherDisplay:10.37,2013-05-12 23:08:00,
2013-05-12 18:13:00,74.9,65.7,30.11,ENE,66,9.1,13.3,73,0.00,CLR,,0.21,WeatherDisplay:10.37,2013-05-12 23:13:00,
2013-05-12 18:18:00,75.0,65.8,30.11,East,82,9.5,13.8,73,0.00,CLR,,0.21,WeatherDisplay:10.37,2013-05-12 23:18:00,
2013-05-12 18:23:00,75.2,65.9,30.11,ENE,65,9.3,12.7,73,0.00,CLR,,0.21,WeatherDisplay:10.37,2013-05-12 23:23:00,
2013-05-12 18:28:00,75.2,65.6,30.10,East,86,11.2,15.0,72,0.00,CLR,,0.21,WeatherDisplay:10.37,2013-05-12 23:28:00,
2013-05-12 18:33:00,75.5,65.8,30.10,East,86,9.3,12.7,72,0.00,CLR,,0.21,WeatherDisplay:10.37,2013-05-12 23:33:00,
2013-05-12 18:38:00,75.8,65.7,30.10,ENE,75,10.7,15.0,71,0.00,CLR,,0.21,WeatherDisplay:10.37,2013-05-12 23:38:00,
2013-05-12 18:43:00,76.1,65.2,30.09,East,96,11.3,18.4,69,0.00,CLR,,0.21,WeatherDisplay:10.37,2013-05-12 23:43:00,
2013-05-12 18:48:00,76.2,64.9,30.09,East,88,9.2,13.8,68,0.00,CLR,,0.21,WeatherDisplay:10.37,2013-05-12 23:48:00,
2013-05-12 18:53:00,76.3,65.4,30.09,ENE,73,10.3,16.1,69,0.00,CLR,,0.21,WeatherDisplay:10.37,2013-05-12 23:53:00,
2013-05-12 18:58:00,76.3,65.4,30.09,ENE,76,9.9,13.8,69,0.00,CLR,,0.21,WeatherDisplay:10.37,2013-05-12 23:58:00,
2013-05-12 19:03:00,76.4,65.1,30.10,East,83,10.5,13.8,68,0.00,CLR,,0.21,WeatherDisplay:10.37,2013-05-13 00:03:00,
2013-05-12 19:08:00,76.7,64.9,30.10,East,96,9.9,15.0,67,0.00,CLR,,0.21,WeatherDisplay:10.37,2013-05-13 00:08:00,
2013-05-12 19:13:00,76.4,64.6,30.09,East,80,9.2,15.0,67,0.00,CLR,,0.21,WeatherDisplay:10.37,2013-05-13 00:13:00,
2013-05-12 19:18:00,76.0,64.7,30.10,East,82,8.5,13.8,68,0.00,CLR,,0.21,WeatherDisplay:10.37,2013-05-13 00:18:00,
2013-05-12 19:23:00,75.5,64.2,30.11,ENE,72,9.8,11.5,68,0.00,CLR,,0.21,WeatherDisplay:10.37,2013-05-13 00:23:00,
2013-05-12 19:28:00,75.1,64.2,30.11,East,88,7.9,10.4,69,0.00,CLR,,0.21,WeatherDisplay:10.37,2013-05-13 00:28:00,
2013-05-12 19:33:00,74.9,64.0,30.11,ENE,66,9.1,12.7,69,0.00,CLR,,0.21,WeatherDisplay:10.37,2013-05-13 00:33:00,
2013-05-12 19:38:00,74.7,63.9,30.11,East,90,7.9,12.7,69,0.00,CLR,,0.21,WeatherDisplay:10.37,2013-05-13 00:38:00,
2013-05-12 19:43:00,74.6,64.2,30.11,ENE,76,7.8,13.8,70,0.00,CLR,,0.21,WeatherDisplay:10.37,2013-05-13 00:43:00,
2013-05-12 19:48:00,74.6,64.2,30.11,East,93,8.9,11.5,70,0.00,CLR,,0.21,WeatherDisplay:10.37,2013-05-13 00:48:00,
2013-05-12 19:53:00,74.4,64.0,30.11,ENE,75,9.8,16.1,70,0.00,CLR,,0.21,WeatherDisplay:10.37,2013-05-13 00:53:00,
2013-05-12 19:58:00,74.3,63.9,30.11,ENE,72,11.4,16.1,70,0.00,CLR,,0.21,WeatherDisplay:10.37,2013-05-13 00:58:00,
2013-05-12 20:03:00,74.0,63.6,30.11,East,86,8.6,15.0,70,0.00,CLR,,0.21,WeatherDisplay:10.37,2013-05-13 01:03:00,
2013-05-12 20:08:00,73.9,63.5,30.11,ENE,58,7.7,11.6,70,0.00,CLR,,0.21,WeatherDisplay:10.37,2013-05-13 01:08:00,
2013-05-12 20:13:00,73.9,63.1,30.12,NE,54,9.9,12.4,69,0.00,CLR,,0.21,WeatherDisplay:10.37,2013-05-13 01:13:00,
2013-05-12 20:18:00,73.7,62.9,30.12,ENE,62,8.3,11.5,69,0.00,CLR,,0.21,WeatherDisplay:10.37,2013-05-13 01:18:00,
2013-05-12 20:23:00,73.7,63.3,30.12,East,90,9.3,12.7,70,0.00,CLR,,0.21,WeatherDisplay:10.37,2013-05-13 01:23:00,
2013-05-12 20:28:00,73.6,63.2,30.12,ENE,68,9.0,12.7,70,0.00,CLR,,0.21,WeatherDisplay:10.37,2013-05-13 01:28:00,
2013-05-12 20:33:00,73.5,63.5,30.13,East,79,8.5,13.0,71,0.00,CLR,,0.21,WeatherDisplay:10.37,2013-05-13 01:33:00,
2013-05-12 20:38:00,73.3,63.3,30.13,ENE,69,9.8,13.8,71,0.00,CLR,,0.21,WeatherDisplay:10.37,2013-05-13 01:38:00,
2013-05-12 20:44:00,73.3,63.3,30.12,East,85,9.9,13.8,71,0.00,CLR,,0.21,WeatherDisplay:10.37,2013-05-13 01:44:00,
2013-05-12 20:49:00,73.2,63.2,30.13,East,88,9.8,13.8,71,0.00,CLR,,0.21,WeatherDisplay:10.37,2013-05-13 01:49:00,
2013-05-12 20:54:00,73.0,63.0,30.13,ENE,75,9.3,11.5,71,0.00,CLR,,0.21,WeatherDisplay:10.37,2013-05-13 01:54:00,
2013-05-12 20:59:00,72.9,62.5,30.13,ENE,59,8.7,13.8,70,0.00,CLR,,0.21,WeatherDisplay:10.37,2013-05-13 01:59:00,
2013-05-12 21:04:00,72.8,62.4,30.13,ENE,68,10.3,15.1,70,0.00,CLR,,0.21,WeatherDisplay:10.37,2013-05-13 02:04:00,
2013-05-12 21:09:00,72.7,62.8,30.14,East,88,9.9,15.1,71,0.00,CLR,,0.21,WeatherDisplay:10.37,2013-05-13 02:09:00,
2013-05-12 21:14:00,72.6,62.7,30.14,NE,55,9.2,16.1,71,0.00,CLR,,0.21,WeatherDisplay:10.37,2013-05-13 02:14:00,
2013-05-12 21:19:00,72.7,63.1,30.13,East,99,12.9,16.1,72,0.00,CLR,,0.21,WeatherDisplay:10.37,2013-05-13 02:19:00,
2013-05-12 21:24:00,72.7,63.5,30.14,ENE,76,11.3,16.3,73,0.00,CLR,,0.21,WeatherDisplay:10.37,2013-05-13 02:24:00,
2013-05-12 21:29:00,72.7,63.5,30.14,East,80,9.0,15.0,73,0.00,CLR,,0.21,WeatherDisplay:10.37,2013-05-13 02:29:00,
2013-05-12 21:34:00,72.8,64.0,30.14,ESE,102,9.4,16.1,74,0.00,CLR,,0.21,WeatherDisplay:10.37,2013-05-13 02:34:00,
2013-05-12 21:39:00,72.7,64.3,30.15,ENE,75,9.5,11.5,75,0.00,CLR,,0.21,WeatherDisplay:10.37,2013-05-13 02:39:00,
2013-05-12 21:44:00,72.7,64.7,30.15,East,83,8.9,11.5,76,0.00,CLR,,0.21,WeatherDisplay:10.37,2013-05-13 02:44:00,
2013-05-12 21:49:00,72.5,64.5,30.15,ENE,61,8.2,12.7,76,0.00,CLR,,0.21,WeatherDisplay:10.37,2013-05-13 02:49:00,
2013-05-12 21:54:00,72.2,64.2,30.16,East,80,8.4,10.4,76,0.00,CLR,,0.21,WeatherDisplay:10.37,2013-05-13 02:54:00,
2013-05-12 21:59:00,72.0,64.0,30.16,ENE,68,8.4,11.3,76,0.00,CLR,,0.21,WeatherDisplay:10.37,2013-05-13 02:59:00,
2013-05-12 22:04:00,72.0,63.6,30.16,East,79,9.8,12.7,75,0.00,CLR,,0.21,WeatherDisplay:10.37,2013-05-13 03:04:00,
2013-05-12 22:09:00,71.9,63.2,30.16,East,86,6.6,11.5,74,0.00,CLR,,0.21,WeatherDisplay:10.37,2013-05-13 03:09:00,
2013-05-12 22:14:00,71.9,63.2,30.16,ENE,69,6.9,9.2,74,0.00,CLR,,0.21,WeatherDisplay:10.37,2013-05-13 03:14:00,
2013-05-12 22:19:00,71.9,63.5,30.16,East,89,7.4,11.5,75,0.00,CLR,,0.21,WeatherDisplay:10.37,2013-05-13 03:19:00,
2013-05-12 22:24:00,71.9,63.5,30.17,ENE,68,6.6,14.2,75,0.00,CLR,,0.21,WeatherDisplay:10.37,2013-05-13 03:24:00,
2013-05-12 22:29:00,72.1,64.1,30.17,East,86,9.5,12.7,76,0.00,CLR,,0.21,WeatherDisplay:10.37,2013-05-13 03:29:00,
2013-05-12 22:34:00,72.1,64.1,30.17,East,99,5.9,6.9,76,0.00,CLR,,0.21,WeatherDisplay:10.37,2013-05-13 03:34:00,
2013-05-12 22:39:00,72.1,64.1,30.17,ENE,75,7.1,11.5,76,0.00,CLR,,0.21,WeatherDisplay:10.37,2013-05-13 03:39:00,
2013-05-12 22:44:00,72.0,64.0,30.17,ENE,76,6.8,8.1,76,0.00,CLR,,0.21,WeatherDisplay:10.37,2013-05-13 03:44:00,
2013-05-12 22:49:00,71.8,63.8,30.17,ENE,61,7.6,13.8,76,0.00,CLR,,0.21,WeatherDisplay:10.37,2013-05-13 03:49:00,
2013-05-12 22:54:00,71.8,64.2,30.18,ENE,69,6.8,10.4,77,0.00,CLR,,0.21,WeatherDisplay:10.37,2013-05-13 03:54:00,
2013-05-12 22:59:00,71.9,64.3,30.18,ENE,73,6.3,9.0,77,0.00,CLR,,0.21,WeatherDisplay:10.37,2013-05-13 03:59:00,
2013-05-12 23:01:00,71.9,64.3,30.18,East,96,8.1,11.5,77,0.00,CLR,,0.21,WeatherDisplay:10.37,2013-05-13 04:01:00,
2013-05-12 23:02:00,71.8,64.2,30.17,ENE,73,8.4,11.5,77,0.00,CLR,,0.21,WeatherDisplay:10.37,2013-05-13 04:02:00,
2013-05-12 23:03:00,71.7,64.1,30.17,East,89,8.1,11.5,77,0.00,CLR,,0.21,WeatherDisplay:10.37,2013-05-13 04:03:00,
2013-05-12 23:05:00,71.7,64.1,30.17,ESE,114,6.5,11.5,77,0.00,CLR,,0.21,WeatherDisplay:10.37,2013-05-13 04:05:00,
2013-05-12 23:10:00,71.7,64.1,30.18,East,100,6.0,8.8,77,0.00,CLR,,0.21,WeatherDisplay:10.37,2013-05-13 04:10:00,
2013-05-12 23:15:00,71.5,63.9,30.19,ESE,106,11.5,11.5,77,0.00,CLR,,0.21,WeatherDisplay:10.37,2013-05-13 04:15:00,
2013-05-12 23:20:00,71.5,63.5,30.18,ESE,102,7.0,9.2,76,0.00,RA,,0.21,WeatherDisplay:10.37,2013-05-13 04:20:00,
2013-05-12 23:25:00,71.4,63.4,30.18,East,89,6.7,9.4,76,0.00,RA,,0.21,WeatherDisplay:10.37,2013-05-13 04:25:00,
2013-05-12 23:30:00,71.4,63.1,30.18,ESE,107,8.1,11.5,75,0.00,RA,,0.21,WeatherDisplay:10.37,2013-05-13 04:30:00,
2013-05-12 23:35:00,71.3,63.0,30.18,East,100,7.9,11.5,75,0.00,RA,,0.21,WeatherDisplay:10.37,2013-05-13 04:35:00,
2013-05-12 23:40:00,71.2,62.5,30.18,ESE,102,8.6,10.6,74,0.00,CLR,,0.21,WeatherDisplay:10.37,2013-05-13 04:40:00,
2013-05-12 23:45:00,71.2,62.5,30.18,East,92,7.1,11.5,74,0.00,CLR,,0.21,WeatherDisplay:10.37,2013-05-13 04:45:00,
2013-05-12 23:50:00,71.2,62.1,30.18,East,93,6.4,8.1,73,0.00,CLR,,0.21,WeatherDisplay:10.37,2013-05-13 04:50:00,
2013-05-12 23:55:00,71.4,62.7,30.18,East,79,9.8,12.7,74,0.00,CLR,,0.21,WeatherDisplay:10.37,2013-05-13 04:55:00,